格洛纳斯-779 COSMOS 2362 [GLONASS]

导读

COSMOS 2362是独联体CIS发射的一颗GLONASS全球导航卫星系统卫星,于1999年12月30日北京时间凌晨发射入轨。作为苏联解体后俄罗斯维持GLONASS星座组网的重要组成部分,它承担全球定位、导航与授时服务任务,运行在中地球轨道,为军民用户提供连续稳定的定位信号,延续了苏联航天导航体系的部署节奏,助力GLONASS系统保持服务能力。

Basic Information
目录编号:
25595
目录名称:
COSMOS 2362 (GLONASS)
国际标识:
1998-077C
轨道中心:
EARTH
卫星名称:
格洛纳斯-779
卫星全名:
格洛纳斯-779 COSMOS 2362 [GLONASS]
卫星状态:
在轨 (已飞行10030 天)
发射日期:
1998-12-30 UTC
国别 :
俄罗斯(独联体) (CIS)
星等 :
--
Orbit Information
数据来源 国际轨道数据 AOE轨道数据
星历时间 2026-06-13T11:50:58+0800
3天前
查看轨道信息
2026-06-12T02:00:00+0800
4天前
查看轨道信息
半长轴 25507.889km 25507.857km
偏心率 0.0007163 0.0007189
轨道倾角 64.334° 64.333°
近地点辐角 58.166° 58.700°
升交点赤经 60.352° 60.401°
平近点角 135.042° 132.492°
近地点 19111.48km 19111.382km
远地点 19148.024km 19148.058km
周期 675.727分钟 675.726分钟
每日圈数 2.131037 2.131041
Detailed Information
平衡模式:
三轴稳定
覆盖范围:
全球
运营商:
列舍特涅夫卫星信息系统
运营商所在国:
俄罗斯
制造商(研发单位):
列舍特涅夫卫星信息系统
制造商所在国:
俄罗斯
使用方式:
暂无
Satellite Introduction
格洛纳斯(GLONASS )是苏联/俄罗斯研制卫星导航系统。标准配置为24颗卫星,其中18颗卫星就能保证该系统为俄罗斯境内用户提供全部服务。该卫星已退役。
2D Orbit Map
3D Orbit Map
Orbit Altitude Analysis Chart
Orbit Inclination Analysis Chart
Orbit Comprehensive Analysis Chart
View Comprehensive Chart